^^

..:: Storico WU ::..




Lo storico viene creato da WUnderground con i dati che la stazione Meteomincio invia al loro server. L' aggiornamento viene fatto ogni 5 minuti circa, tuttavia possono esserci intervalli pił ampi a causa di errori, interruzioni di servizio o problemi nell' invio tramite FTP.


Storico stazione MeteoMincio
Giorno Sommario per Dicembre 14, 2022 Unità:  Inglese    Metrico   Entrambi
Giorno Settimana Mese Anno
  Max: Min: Media:
Temperatura: 41 °F 35.6 °F 37.9 °F
Dew Point: 37.4 °F 33.8 °F 36 °F
Umidità: 100% 86% 92%
Velocità vento: 7.5mph 1.9mph 4.6mph
Raffica: 10.6mph - -
Direzione- - WSW
Pressione: 29.8 in 29.7 in -
Precipitazioni: 0 in    
 
 
Tabulato Dati per Dicembre 14, 2022
Ora Temperatura Dew Point Pressione Direzione Velocità vento Raffica Umidità Intensità pioggia (oraria) Info solare Situazione
00:04 35.6 °F 35.6 °F 29.8 in WNW 5 mph 6.2 mph 95% 0 in 0.00 W/m2 unknown
00:09 35.6 °F 35.6 °F 29.8 in WNW 5 mph 6.2 mph 95% 0 in 0.00 W/m2 unknown
00:14 35.6 °F 35.6 °F 29.8 in WNW 3.1 mph 6.2 mph 95% 0 in 0.00 W/m2 unknown
00:19 35.6 °F 35.6 °F 29.8 in WNW 3.7 mph 5 mph 95% 0 in 0.00 W/m2 unknown
00:24 35.6 °F 35.6 °F 29.8 in WNW 3.7 mph 5 mph 95% 0 in 0.00 W/m2 unknown
00:29 35.6 °F 35.6 °F 29.8 in WNW 3.7 mph 5 mph 95% 0 in 0.00 W/m2 unknown
00:34 35.6 °F 35.6 °F 29.8 in WNW 3.7 mph 5 mph 95% 0 in 0.00 W/m2 unknown
00:39 35.6 °F 35.6 °F 29.8 in West 3.1 mph 5 mph 95% 0 in 0.00 W/m2 unknown
00:44 35.6 °F 35.6 °F 29.8 in WSW 3.1 mph 3.7 mph 95% 0 in 0.00 W/m2 unknown
00:49 35.6 °F 35.6 °F 29.8 in WSW 3.1 mph 3.7 mph 95% 0 in 0.00 W/m2 unknown
00:54 35.6 °F 35.6 °F 29.8 in WSW 3.1 mph 3.7 mph 95% 0 in 0.00 W/m2 unknown
00:59 35.6 °F 35.6 °F 29.8 in WSW 3.7 mph 6.2 mph 95% 0 in 0.00 W/m2 unknown
01:04 35.6 °F 35.6 °F 29.8 in WSW 4.3 mph 6.2 mph 95% 0 in 0.00 W/m2 unknown
01:09 35.6 °F 35.6 °F 29.8 in WSW 5 mph 6.2 mph 95% 0 in 0.00 W/m2 unknown
01:14 35.6 °F 35.6 °F 29.8 in WSW 5.6 mph 6.8 mph 95% 0 in 0.00 W/m2 unknown
01:19 35.6 °F 35.6 °F 29.8 in WSW 5 mph 6.8 mph 95% 0 in 0.00 W/m2 unknown
01:24 35.6 °F 35.6 °F 29.8 in WSW 5 mph 6.2 mph 95% 0 in 0.00 W/m2 unknown
01:29 35.6 °F 35.6 °F 29.8 in WSW 3.7 mph 6.2 mph 95% 0 in 0.00 W/m2 unknown
01:34 35.6 °F 35.6 °F 29.8 in WSW 4.3 mph 6.2 mph 95% 0 in 0.00 W/m2 unknown
01:39 35.6 °F 35.6 °F 29.8 in WSW 5 mph 6.2 mph 95% 0 in 0.00 W/m2 unknown
01:44 35.6 °F 35.6 °F 29.8 in WSW 4.3 mph 6.2 mph 95% 0 in 0.00 W/m2 unknown
01:49 35.6 °F 35.6 °F 29.8 in WSW 3.1 mph 6.2 mph 95% 0 in 0.00 W/m2 unknown
01:54 35.6 °F 35.6 °F 29.8 in WSW 4.3 mph 6.2 mph 95% 0 in 0.00 W/m2 unknown
01:59 35.6 °F 35.6 °F 29.8 in WSW 3.7 mph 5 mph 95% 0 in 0.00 W/m2 unknown
02:04 35.6 °F 35.6 °F 29.8 in WSW 3.7 mph 5 mph 95% 0 in 0.00 W/m2 unknown
02:09 35.6 °F 35.6 °F 29.8 in WSW 3.1 mph 5 mph 95% 0 in 0.00 W/m2 unknown
02:14 35.6 °F 35.6 °F 29.8 in WSW 3.7 mph 5 mph 95% 0 in 0.00 W/m2 unknown
02:19 35.6 °F 35.6 °F 29.8 in WSW 3.1 mph 5 mph 95% 0 in 0.00 W/m2 unknown
02:24 35.6 °F 35.6 °F 29.8 in WSW 3.7 mph 4.3 mph 95% 0 in 0.00 W/m2 unknown
02:29 35.6 °F 35.6 °F 29.8 in WSW 3.7 mph 6.2 mph 95% 0 in 0.00 W/m2 unknown
02:34 35.6 °F 35.6 °F 29.8 in WSW 4.3 mph 6.2 mph 95% 0 in 0.00 W/m2 unknown
02:39 35.6 °F 35.6 °F 29.8 in SW 3.7 mph 6.2 mph 95% 0 in 0.00 W/m2 unknown
02:44 35.6 °F 35.6 °F 29.8 in SW 4.3 mph 6.2 mph 95% 0 in 0.00 W/m2 unknown
02:49 35.6 °F 35.6 °F 29.8 in WSW 4.3 mph 6.2 mph 95% 0 in 0.00 W/m2 unknown
02:54 35.6 °F 35.6 °F 29.8 in WSW 3.7 mph 6.2 mph 95% 0 in 0.00 W/m2 unknown
02:59 35.6 °F 35.6 °F 29.8 in WSW 3.7 mph 5 mph 95% 0 in 0.00 W/m2 unknown
03:04 35.6 °F 35.6 °F 29.8 in WSW 4.3 mph 5 mph 95% 0 in 0.00 W/m2 unknown
03:09 35.6 °F 33.8 °F 29.8 in WSW 3.7 mph 5 mph 95% 0 in 0.00 W/m2 unknown
03:14 35.6 °F 33.8 °F 29.8 in WSW 3.7 mph 5 mph 95% 0 in 0.00 W/m2 unknown
03:19 35.6 °F 33.8 °F 29.8 in WSW 3.7 mph 6.8 mph 95% 0 in 0.00 W/m2 unknown
03:24 35.6 °F 33.8 °F 29.8 in WSW 3.7 mph 6.8 mph 95% 0 in 0.00 W/m2 unknown
03:29 35.6 °F 33.8 °F 29.8 in WSW 4.3 mph 5 mph 95% 0 in 0.00 W/m2 unknown
03:34 35.6 °F 33.8 °F 29.8 in WSW 3.7 mph 6.2 mph 95% 0 in 0.00 W/m2 unknown
03:39 35.6 °F 33.8 °F 29.8 in WSW 3.7 mph 6.2 mph 95% 0 in 0.00 W/m2 unknown
03:44 35.6 °F 33.8 °F 29.8 in WSW 4.3 mph 6.2 mph 95% 0 in 0.00 W/m2 unknown
03:49 35.6 °F 33.8 °F 29.8 in WSW 5.6 mph 8.1 mph 95% 0 in 0.00 W/m2 unknown
03:54 35.6 °F 33.8 °F 29.8 in WSW 5 mph 8.1 mph 95% 0 in 0.00 W/m2 unknown
03:59 35.6 °F 33.8 °F 29.8 in WSW 5 mph 6.8 mph 95% 0 in 0.00 W/m2 unknown
04:04 35.6 °F 33.8 °F 29.8 in WSW 5 mph 6.2 mph 95% 0 in 0.00 W/m2 unknown
04:09 35.6 °F 33.8 °F 29.8 in WSW 4.3 mph 6.2 mph 95% 0 in 0.00 W/m2 unknown
04:14 35.6 °F 33.8 °F 29.8 in West 4.3 mph 6.8 mph 95% 0 in 0.00 W/m2 unknown
04:19 35.6 °F 33.8 °F 29.8 in WSW 5 mph 6.8 mph 95% 0 in 0.00 W/m2 unknown
04:24 35.6 °F 33.8 °F 29.8 in WSW 5 mph 6.8 mph 95% 0 in 0.00 W/m2 unknown
04:29 35.6 °F 33.8 °F 29.8 in West 5 mph 6.8 mph 95% 0 in 0.00 W/m2 unknown
04:34 35.6 °F 33.8 °F 29.8 in WSW 5 mph 6.8 mph 95% 0 in 0.00 W/m2 unknown
04:39 35.6 °F 33.8 °F 29.8 in WSW 5 mph 6.8 mph 95% 0 in 0.00 W/m2 unknown
04:44 35.6 °F 33.8 °F 29.8 in WSW 5 mph 6.8 mph 95% 0 in 0.00 W/m2 unknown
04:49 35.6 °F 33.8 °F 29.8 in WSW 3.7 mph 5 mph 95% 0 in 0.00 W/m2 unknown
04:54 35.6 °F 33.8 °F 29.8 in WSW 5.6 mph 6.8 mph 95% 0 in 0.00 W/m2 unknown
04:59 35.6 °F 33.8 °F 29.8 in WSW 5 mph 6.8 mph 95% 0 in 0.00 W/m2 unknown
05:04 35.6 °F 33.8 °F 29.8 in WSW 5.6 mph 6.8 mph 95% 0 in 0.00 W/m2 unknown
05:09 35.6 °F 33.8 °F 29.8 in SW 5 mph 6.8 mph 95% 0 in 0.00 W/m2 unknown
05:14 35.6 °F 33.8 °F 29.8 in WSW 5 mph 6.2 mph 95% 0 in 0.00 W/m2 unknown
05:19 35.6 °F 33.8 °F 29.8 in West 5 mph 6.2 mph 95% 0 in 0.00 W/m2 unknown
05:24 35.6 °F 33.8 °F 29.8 in WSW 4.3 mph 5.6 mph 95% 0 in 0.00 W/m2 unknown
05:29 35.6 °F 33.8 °F 29.8 in WSW 3.7 mph 6.2 mph 95% 0 in 0.00 W/m2 unknown
05:34 35.6 °F 33.8 °F 29.8 in WSW 4.3 mph 6.2 mph 95% 0 in 0.00 W/m2 unknown
05:39 35.6 °F 33.8 °F 29.8 in WSW 4.3 mph 6.2 mph 95% 0 in 0.00 W/m2 unknown
05:44 35.6 °F 33.8 °F 29.8 in WSW 3.7 mph 5 mph 95% 0 in 0.00 W/m2 unknown
05:49 35.6 °F 33.8 °F 29.8 in WSW 4.3 mph 6.2 mph 95% 0 in 0.00 W/m2 unknown
05:54 35.6 °F 33.8 °F 29.8 in WSW 5 mph 6.2 mph 95% 0 in 0.00 W/m2 unknown
05:59 35.6 °F 33.8 °F 29.8 in WSW 4.3 mph 6.2 mph 95% 0 in 0.00 W/m2 unknown
06:04 35.6 °F 33.8 °F 29.8 in WSW 4.3 mph 6.2 mph 95% 0 in 0.00 W/m2 unknown
06:09 35.6 °F 33.8 °F 29.8 in WSW 5 mph 6.2 mph 95% 0 in 0.00 W/m2 unknown
06:14 35.6 °F 33.8 °F 29.8 in WSW 5 mph 6.2 mph 95% 0 in 0.00 W/m2 unknown
06:19 35.6 °F 33.8 °F 29.8 in WSW 5.6 mph 8.1 mph 95% 0 in 0.00 W/m2 unknown
06:24 35.6 °F 33.8 °F 29.8 in WSW 5.6 mph 8.1 mph 95% 0 in 0.00 W/m2 unknown
06:29 35.6 °F 33.8 °F 29.8 in WSW 5 mph 6.8 mph 95% 0 in 0.00 W/m2 unknown
06:34 35.6 °F 33.8 °F 29.8 in WSW 4.3 mph 6.2 mph 95% 0 in 0.00 W/m2 unknown
06:39 35.6 °F 33.8 °F 29.8 in WSW 5 mph 6.2 mph 95% 0 in 0.00 W/m2 unknown
06:44 35.6 °F 33.8 °F 29.8 in WSW 5 mph 6.2 mph 95% 0 in 0.00 W/m2 unknown
06:47 35.6 °F 33.8 °F 29.7 in WSW 5 mph 6.2 mph 95% 0 in 0.00 W/m2 unknown
06:54 35.6 °F 33.8 °F 29.7 in WSW 5 mph 6.2 mph 95% 0 in 0.00 W/m2 unknown
06:59 35.6 °F 33.8 °F 29.8 in West 5.6 mph 6.8 mph 95% 0 in 0.00 W/m2 unknown
07:04 35.6 °F 33.8 °F 29.8 in West 5 mph 6.8 mph 95% 0 in 0.00 W/m2 unknown
07:09 35.6 °F 33.8 °F 29.8 in West 4.3 mph 6.2 mph 95% 0 in 0.00 W/m2 unknown
07:14 35.6 °F 33.8 °F 29.8 in West 4.3 mph 6.2 mph 95% 0 in 0.00 W/m2 unknown
07:19 35.6 °F 33.8 °F 29.8 in West 4.3 mph 6.2 mph 95% 0 in 0.00 W/m2 unknown
07:24 35.6 °F 33.8 °F 29.8 in WSW 5 mph 6.2 mph 95% 0 in 0.00 W/m2 unknown
07:29 35.6 °F 33.8 °F 29.8 in West 4.3 mph 6.2 mph 95% 0 in 0.00 W/m2 unknown
07:34 35.6 °F 33.8 °F 29.8 in WSW 4.3 mph 5 mph 95% 0 in 0.00 W/m2 unknown
07:39 35.6 °F 33.8 °F 29.8 in WSW 3.7 mph 5 mph 95% 0 in 0.00 W/m2 unknown
07:44 35.6 °F 33.8 °F 29.8 in WSW 4.3 mph 6.2 mph 95% 0 in 0.00 W/m2 unknown
07:49 35.6 °F 33.8 °F 29.8 in SW 4.3 mph 6.2 mph 95% 0 in 0.00 W/m2 unknown
07:54 35.6 °F 33.8 °F 29.8 in WSW 5 mph 6.2 mph 95% 0 in 0.00 W/m2 unknown
07:59 35.6 °F 33.8 °F 29.8 in WSW 3.1 mph 5 mph 95% 0 in 0.00 W/m2 unknown
08:04 35.6 °F 33.8 °F 29.8 in WSW 3.1 mph 3.7 mph 95% 0 in 0.00 W/m2 unknown
08:09 35.6 °F 33.8 °F 29.8 in West 3.1 mph 3.7 mph 95% 0 in 5.00 W/m2 unknown
08:14 35.6 °F 33.8 °F 29.8 in WNW 2.5 mph 3.7 mph 95% 0 in 7.00 W/m2 unknown
08:19 35.6 °F 33.8 °F 29.8 in West 1.9 mph 3.7 mph 95% 0 in 9.00 W/m2 unknown
08:24 35.6 °F 33.8 °F 29.8 in West 2.5 mph 3.7 mph 95% 0 in 11.00 W/m2 unknown
08:29 35.6 °F 33.8 °F 29.8 in West 2.5 mph 3.7 mph 95% 0 in 12.00 W/m2 unknown
08:34 35.6 °F 33.8 °F 29.8 in West 2.5 mph 3.7 mph 95% 0 in 16.00 W/m2 unknown
08:39 35.6 °F 33.8 °F 29.8 in West 2.5 mph 3.7 mph 95% 0 in 18.00 W/m2 unknown
08:44 35.6 °F 33.8 °F 29.8 in WNW 2.5 mph 3.7 mph 95% 0 in 19.00 W/m2 unknown
08:49 35.6 °F 33.8 °F 29.8 in WNW 3.1 mph 3.7 mph 95% 0 in 19.00 W/m2 unknown
08:54 35.6 °F 33.8 °F 29.8 in West 3.7 mph 5 mph 95% 0 in 19.00 W/m2 unknown
08:59 35.6 °F 33.8 °F 29.8 in WNW 3.7 mph 5 mph 95% 0 in 26.00 W/m2 unknown
09:04 35.6 °F 33.8 °F 29.8 in West 3.1 mph 5 mph 95% 0 in 28.00 W/m2 unknown
09:09 35.6 °F 33.8 °F 29.8 in WSW 3.1 mph 5 mph 95% 0 in 25.00 W/m2 unknown
09:14 35.6 °F 33.8 °F 29.8 in WSW 3.7 mph 5 mph 95% 0 in 26.00 W/m2 unknown
09:19 35.6 °F 33.8 °F 29.8 in WSW 3.7 mph 5 mph 95% 0 in 30.00 W/m2 unknown
09:24 35.6 °F 33.8 °F 29.8 in West 3.1 mph 5 mph 95% 0 in 35.00 W/m2 unknown
09:29 35.6 °F 33.8 °F 29.8 in West 3.1 mph 5 mph 95% 0 in 37.00 W/m2 unknown
09:34 35.6 °F 33.8 °F 29.8 in WNW 3.7 mph 5 mph 95% 0 in 42.00 W/m2 unknown
09:39 35.6 °F 33.8 °F 29.8 in West 4.3 mph 5 mph 95% 0 in 47.00 W/m2 unknown
09:44 35.6 °F 33.8 °F 29.8 in WNW 2.5 mph 5 mph 95% 0 in 49.00 W/m2 unknown
09:49 35.6 °F 35.6 °F 29.8 in West 3.1 mph 5 mph 100% 0 in 49.00 W/m2 unknown
09:54 35.6 °F 33.8 °F 29.8 in WNW 3.1 mph 5 mph 95% 0 in 60.00 W/m2 unknown
09:59 35.6 °F 35.6 °F 29.8 in WNW 2.5 mph 5 mph 95% 0 in 58.00 W/m2 unknown
10:04 35.6 °F 35.6 °F 29.8 in West 3.1 mph 3.7 mph 95% 0 in 56.00 W/m2 unknown
10:09 35.6 °F 33.8 °F 29.8 in West 3.1 mph 3.7 mph 94% 0 in 62.00 W/m2 unknown
10:14 35.6 °F 35.6 °F 29.8 in WNW 5 mph 6.2 mph 95% 0 in 67.00 W/m2 unknown
10:19 35.6 °F 35.6 °F 29.8 in WNW 6.2 mph 6.8 mph 94% 0 in 74.00 W/m2 unknown
10:24 37.4 °F 35.6 °F 29.8 in WNW 6.2 mph 8.1 mph 94% 0 in 83.00 W/m2 unknown
10:29 37.4 °F 35.6 °F 29.8 in WNW 5 mph 8.1 mph 94% 0 in 97.00 W/m2 unknown
10:34 37.4 °F 35.6 °F 29.8 in WNW 5.6 mph 8.1 mph 94% 0 in 104.00 W/m2 unknown
10:39 37.4 °F 35.6 °F 29.8 in WNW 5 mph 6.8 mph 93% 0 in 107.00 W/m2 unknown
10:44 37.4 °F 35.6 °F 29.8 in WNW 4.3 mph 6.2 mph 92% 0 in 127.00 W/m2 unknown
10:49 37.4 °F 35.6 °F 29.8 in West 4.3 mph 5 mph 92% 0 in 172.00 W/m2 unknown
10:54 39.2 °F 35.6 °F 29.8 in WNW 4.3 mph 5 mph 92% 0 in 176.00 W/m2 unknown
10:59 39.2 °F 35.6 °F 29.8 in WNW 5 mph 5 mph 91% 0 in 181.00 W/m2 unknown
11:04 39.2 °F 35.6 °F 29.8 in WNW 4.3 mph 6.2 mph 91% 0 in 190.00 W/m2 unknown
11:09 39.2 °F 35.6 °F 29.8 in WNW 5.6 mph 8.1 mph 91% 0 in 190.00 W/m2 unknown
11:14 39.2 °F 35.6 °F 29.8 in WNW 5.6 mph 8.1 mph 90% 0 in 163.00 W/m2 unknown
11:19 39.2 °F 35.6 °F 29.8 in WNW 5 mph 6.2 mph 90% 0 in 130.00 W/m2 unknown
11:24 39.2 °F 35.6 °F 29.8 in WNW 6.2 mph 8.1 mph 90% 0 in 130.00 W/m2 unknown
11:29 39.2 °F 35.6 °F 29.8 in WNW 6.2 mph 8.1 mph 90% 0 in 123.00 W/m2 unknown
11:34 39.2 °F 35.6 °F 29.8 in WNW 5.6 mph 8.1 mph 90% 0 in 102.00 W/m2 unknown
11:39 39.2 °F 37.4 °F 29.7 in WNW 5.6 mph 6.8 mph 90% 0 in 139.00 W/m2 unknown
11:44 39.2 °F 37.4 °F 29.7 in WNW 6.2 mph 6.8 mph 90% 0 in 139.00 W/m2 unknown
11:49 39.2 °F 37.4 °F 29.7 in WNW 5 mph 6.8 mph 90% 0 in 125.00 W/m2 unknown
11:54 39.2 °F 37.4 °F 29.7 in West 5 mph 6.2 mph 90% 0 in 105.00 W/m2 unknown
11:59 39.2 °F 37.4 °F 29.7 in West 4.3 mph 6.2 mph 90% 0 in 97.00 W/m2 unknown
12:04 39.2 °F 37.4 °F 29.7 in West 5 mph 6.2 mph 90% 0 in 102.00 W/m2 unknown
12:09 39.2 °F 37.4 °F 29.7 in West 5 mph 6.2 mph 90% 0 in 120.00 W/m2 unknown
12:14 41 °F 37.4 °F 29.7 in West 3.7 mph 5 mph 90% 0 in 128.00 W/m2 unknown
12:19 41 °F 37.4 °F 29.7 in West 5 mph 6.2 mph 90% 0 in 149.00 W/m2 unknown
12:24 41 °F 37.4 °F 29.7 in West 5 mph 6.2 mph 89% 0 in 130.00 W/m2 unknown
12:29 41 °F 37.4 °F 29.7 in West 6.2 mph 8.7 mph 89% 0 in 114.00 W/m2 unknown
12:34 41 °F 37.4 °F 29.7 in West 6.8 mph 9.3 mph 89% 0 in 100.00 W/m2 unknown
12:39 41 °F 37.4 °F 29.7 in WSW 5 mph 6.8 mph 89% 0 in 130.00 W/m2 unknown
12:44 41 °F 37.4 °F 29.7 in WSW 5 mph 6.8 mph 89% 0 in 153.00 W/m2 unknown
12:49 41 °F 37.4 °F 29.7 in WSW 5.6 mph 6.8 mph 89% 0 in 142.00 W/m2 unknown
12:54 41 °F 37.4 °F 29.7 in WSW 6.2 mph 6.8 mph 89% 0 in 162.00 W/m2 unknown
12:59 41 °F 37.4 °F 29.7 in WSW 5.6 mph 6.8 mph 89% 0 in 162.00 W/m2 unknown
13:04 41 °F 37.4 °F 29.7 in SW 5.6 mph 6.8 mph 89% 0 in 144.00 W/m2 unknown
13:09 41 °F 37.4 °F 29.7 in WSW 6.8 mph 9.3 mph 88% 0 in 144.00 W/m2 unknown
13:14 41 °F 37.4 °F 29.7 in West 5.6 mph 8.7 mph 87% 0 in 116.00 W/m2 unknown
13:19 41 °F 37.4 °F 29.7 in WSW 6.2 mph 8.1 mph 88% 0 in 107.00 W/m2 unknown
13:24 41 °F 37.4 °F 29.7 in SW 7.5 mph 9.3 mph 88% 0 in 102.00 W/m2 unknown
13:29 41 °F 37.4 °F 29.7 in SW 7.5 mph 9.9 mph 88% 0 in 88.00 W/m2 unknown
13:34 41 °F 37.4 °F 29.7 in WSW 6.8 mph 10.6 mph 87% 0 in 84.00 W/m2 unknown
13:39 41 °F 37.4 °F 29.7 in WSW 6.8 mph 9.3 mph 87% 0 in 90.00 W/m2 unknown
13:44 41 °F 37.4 °F 29.7 in WSW 6.2 mph 8.7 mph 88% 0 in 100.00 W/m2 unknown
13:49 41 °F 37.4 °F 29.7 in WSW 6.2 mph 8.1 mph 87% 0 in 100.00 W/m2 unknown
13:54 41 °F 37.4 °F 29.7 in SW 6.2 mph 8.1 mph 88% 0 in 105.00 W/m2 unknown
13:59 41 °F 37.4 °F 29.7 in WSW 6.2 mph 8.1 mph 88% 0 in 100.00 W/m2 unknown
14:04 41 °F 37.4 °F 29.7 in WSW 6.2 mph 8.1 mph 87% 0 in 90.00 W/m2 unknown
14:09 41 °F 37.4 °F 29.7 in WSW 6.2 mph 8.1 mph 87% 0 in 104.00 W/m2 unknown
14:14 41 °F 37.4 °F 29.7 in WSW 6.2 mph 8.1 mph 87% 0 in 132.00 W/m2 unknown
14:19 41 °F 37.4 °F 29.7 in WSW 6.2 mph 8.1 mph 87% 0 in 209.00 W/m2 unknown
14:24 41 °F 37.4 °F 29.7 in West 6.2 mph 8.1 mph 87% 0 in 206.00 W/m2 unknown
14:29 41 °F 37.4 °F 29.7 in West 6.2 mph 8.1 mph 86% 0 in 144.00 W/m2 unknown
14:34 41 °F 37.4 °F 29.7 in West 6.2 mph 8.1 mph 86% 0 in 144.00 W/m2 unknown
14:39 41 °F 37.4 °F 29.7 in WSW 5.6 mph 8.1 mph 86% 0 in 155.00 W/m2 unknown
14:44 41 °F 37.4 °F 29.7 in WSW 5 mph 6.8 mph 87% 0 in 155.00 W/m2 unknown
14:49 41 °F 37.4 °F 29.7 in WSW 5.6 mph 6.8 mph 87% 0 in 98.00 W/m2 unknown
14:54 41 °F 37.4 °F 29.7 in WSW 5 mph 6.8 mph 87% 0 in 98.00 W/m2 unknown
14:59 41 °F 37.4 °F 29.7 in WSW 5 mph 6.8 mph 87% 0 in 88.00 W/m2 unknown
15:04 41 °F 37.4 °F 29.7 in WSW 5 mph 6.8 mph 87% 0 in 53.00 W/m2 unknown
15:09 41 °F 37.4 °F 29.7 in WSW 5 mph 6.8 mph 87% 0 in 74.00 W/m2 unknown
15:14 41 °F 37.4 °F 29.7 in WSW 6.2 mph 8.1 mph 87% 0 in 86.00 W/m2 unknown
15:19 41 °F 37.4 °F 29.7 in WSW 6.2 mph 8.1 mph 87% 0 in 88.00 W/m2 unknown
15:24 41 °F 37.4 °F 29.7 in West 5.6 mph 6.8 mph 87% 0 in 69.00 W/m2 unknown
15:29 41 °F 37.4 °F 29.7 in West 5.6 mph 6.8 mph 87% 0 in 33.00 W/m2 unknown
15:34 41 °F 37.4 °F 29.7 in West 5.6 mph 6.8 mph 87% 0 in 23.00 W/m2 unknown
15:39 41 °F 37.4 °F 29.7 in West 6.2 mph 6.8 mph 87% 0 in 12.00 W/m2 unknown
15:44 41 °F 37.4 °F 29.7 in West 5 mph 6.8 mph 87% 0 in 12.00 W/m2 unknown
15:49 41 °F 37.4 °F 29.7 in West 5 mph 6.8 mph 87% 0 in 11.00 W/m2 unknown
15:54 41 °F 37.4 °F 29.7 in West 5.6 mph 6.8 mph 87% 0 in 12.00 W/m2 unknown
15:59 41 °F 37.4 °F 29.7 in WSW 6.2 mph 6.8 mph 87% 0 in 16.00 W/m2 unknown
16:04 41 °F 37.4 °F 29.7 in WSW 4.3 mph 6.2 mph 87% 0 in 16.00 W/m2 unknown
16:09 41 °F 37.4 °F 29.7 in WSW 3.7 mph 5 mph 87% 0 in 12.00 W/m2 unknown
16:14 41 °F 37.4 °F 29.7 in WSW 3.7 mph 3.7 mph 87% 0 in 9.00 W/m2 unknown
16:19 41 °F 37.4 °F 29.7 in WSW 3.7 mph 5 mph 87% 0 in 5.00 W/m2 unknown
16:24 41 °F 37.4 °F 29.7 in WSW 5.6 mph 6.8 mph 88% 0 in 0.00 W/m2 unknown
16:29 41 °F 37.4 °F 29.7 in WSW 5 mph 6.8 mph 88% 0 in 0.00 W/m2 unknown
16:34 41 °F 37.4 °F 29.7 in West 5 mph 6.8 mph 88% 0 in 0.00 W/m2 unknown
16:39 41 °F 37.4 °F 29.7 in WSW 3.1 mph 5 mph 88% 0 in 0.00 W/m2 unknown
16:44 41 °F 37.4 °F 29.7 in WSW 3.1 mph 5 mph 88% 0 in 0.00 W/m2 unknown
16:49 41 °F 37.4 °F 29.7 in WSW 3.7 mph 5 mph 88% 0 in 0.00 W/m2 unknown
16:54 41 °F 37.4 °F 29.7 in SW 3.7 mph 5 mph 88% 0 in 0.00 W/m2 unknown
16:59 41 °F 37.4 °F 29.7 in WSW 5.6 mph 6.8 mph 89% 0 in 0.00 W/m2 unknown
17:04 41 °F 37.4 °F 29.7 in SW 5 mph 6.8 mph 89% 0 in 0.00 W/m2 unknown
17:09 41 °F 37.4 °F 29.7 in SW 5.6 mph 6.2 mph 89% 0 in 0.00 W/m2 unknown
17:14 41 °F 37.4 °F 29.7 in SW 5 mph 6.2 mph 89% 0 in 0.00 W/m2 unknown
17:19 41 °F 37.4 °F 29.7 in SW 3.1 mph 6.2 mph 89% 0 in 0.00 W/m2 unknown
17:24 41 °F 37.4 °F 29.7 in WSW 5.6 mph 6.8 mph 89% 0 in 0.00 W/m2 unknown
17:29 41 °F 37.4 °F 29.7 in SW 5.6 mph 6.8 mph 89% 0 in 0.00 W/m2 unknown
17:34 39.2 °F 37.4 °F 29.7 in SW 5 mph 6.8 mph 89% 0 in 0.00 W/m2 unknown
17:39 39.2 °F 37.4 °F 29.7 in WSW 3.7 mph 6.2 mph 89% 0 in 0.00 W/m2 unknown
17:44 39.2 °F 37.4 °F 29.7 in WSW 4.3 mph 6.2 mph 89% 0 in 0.00 W/m2 unknown
17:49 39.2 °F 37.4 °F 29.7 in WSW 5 mph 6.2 mph 89% 0 in 0.00 W/m2 unknown
17:54 39.2 °F 37.4 °F 29.7 in SW 4.3 mph 6.2 mph 89% 0 in 0.00 W/m2 unknown
17:59 39.2 °F 37.4 °F 29.7 in SW 5 mph 5 mph 89% 0 in 0.00 W/m2 unknown
18:04 39.2 °F 37.4 °F 29.7 in SW 3.7 mph 5 mph 89% 0 in 0.00 W/m2 unknown
18:09 39.2 °F 37.4 °F 29.7 in SW 4.3 mph 6.8 mph 89% 0 in 0.00 W/m2 unknown
18:14 39.2 °F 37.4 °F 29.7 in WSW 5 mph 6.8 mph 89% 0 in 0.00 W/m2 unknown
18:19 39.2 °F 37.4 °F 29.7 in WSW 5 mph 6.8 mph 89% 0 in 0.00 W/m2 unknown
18:24 39.2 °F 37.4 °F 29.7 in WSW 5 mph 6.8 mph 89% 0 in 0.00 W/m2 unknown
18:29 39.2 °F 37.4 °F 29.7 in WSW 5 mph 6.8 mph 89% 0 in 0.00 W/m2 unknown
18:34 39.2 °F 37.4 °F 29.7 in WSW 4.3 mph 6.2 mph 89% 0 in 0.00 W/m2 unknown
18:39 39.2 °F 37.4 °F 29.7 in WSW 5 mph 6.2 mph 90% 0 in 0.00 W/m2 unknown
18:44 39.2 °F 37.4 °F 29.7 in WSW 5.6 mph 8.1 mph 90% 0 in 0.00 W/m2 unknown
18:49 39.2 °F 37.4 °F 29.7 in WSW 4.3 mph 8.1 mph 90% 0 in 0.00 W/m2 unknown
18:54 39.2 °F 37.4 °F 29.7 in WSW 3.7 mph 6.2 mph 90% 0 in 0.00 W/m2 unknown
18:58 39.2 °F 37.4 °F 29.7 in WSW 4.3 mph 5 mph 90% 0 in 0.00 W/m2 unknown
19:04 39.2 °F 37.4 °F 29.7 in WSW 4.3 mph 5 mph 90% 0 in 0.00 W/m2 unknown
19:09 39.2 °F 37.4 °F 29.7 in WSW 5 mph 6.2 mph 90% 0 in 0.00 W/m2 unknown
19:14 39.2 °F 37.4 °F 29.7 in WSW 5 mph 6.8 mph 90% 0 in 0.00 W/m2 unknown
19:19 39.2 °F 37.4 °F 29.7 in WSW 5 mph 6.8 mph 90% 0 in 0.00 W/m2 unknown
19:24 39.2 °F 37.4 °F 29.7 in West 5 mph 6.8 mph 90% 0 in 0.00 W/m2 unknown
19:29 39.2 °F 37.4 °F 29.7 in West 5 mph 6.8 mph 90% 0 in 0.00 W/m2 unknown
19:34 39.2 °F 37.4 °F 29.7 in West 4.3 mph 6.2 mph 91% 0 in 0.00 W/m2 unknown
19:39 39.2 °F 37.4 °F 29.7 in West 5 mph 6.2 mph 91% 0 in 0.00 W/m2 unknown
19:44 39.2 °F 37.4 °F 29.7 in West 5 mph 6.8 mph 91% 0 in 0.00 W/m2 unknown
19:49 39.2 °F 37.4 °F 29.7 in West 3.1 mph 6.8 mph 91% 0 in 0.00 W/m2 unknown
19:54 39.2 °F 37.4 °F 29.7 in West 3.1 mph 3.7 mph 91% 0 in 0.00 W/m2 unknown
19:59 39.2 °F 37.4 °F 29.7 in WSW 3.1 mph 5 mph 91% 0 in 0.00 W/m2 unknown
20:04 39.2 °F 37.4 °F 29.7 in West 3.1 mph 5 mph 91% 0 in 0.00 W/m2 unknown
20:09 39.2 °F 37.4 °F 29.7 in West 3.1 mph 3.7 mph 91% 0 in 0.00 W/m2 unknown
20:14 39.2 °F 37.4 °F 29.7 in WSW 3.1 mph 3.7 mph 91% 0 in 0.00 W/m2 unknown
20:19 39.2 °F 37.4 °F 29.7 in West 3.7 mph 5 mph 91% 0 in 0.00 W/m2 unknown
20:24 39.2 °F 37.4 °F 29.7 in WSW 3.7 mph 5 mph 91% 0 in 0.00 W/m2 unknown
20:29 39.2 °F 37.4 °F 29.7 in West 3.7 mph 6.2 mph 91% 0 in 0.00 W/m2 unknown
20:34 39.2 °F 37.4 °F 29.7 in West 3.7 mph 6.2 mph 91% 0 in 0.00 W/m2 unknown
20:39 39.2 °F 37.4 °F 29.7 in West 3.1 mph 6.2 mph 91% 0 in 0.00 W/m2 unknown
20:44 39.2 °F 37.4 °F 29.7 in West 3.7 mph 6.2 mph 92% 0 in 0.00 W/m2 unknown
20:49 39.2 °F 37.4 °F 29.7 in West 4.3 mph 6.2 mph 92% 0 in 0.00 W/m2 unknown
20:54 39.2 °F 37.4 °F 29.7 in West 5 mph 6.2 mph 92% 0 in 0.00 W/m2 unknown
20:59 39.2 °F 37.4 °F 29.7 in West 3.1 mph 5 mph 92% 0 in 0.00 W/m2 unknown
21:04 39.2 °F 37.4 °F 29.7 in West 3.1 mph 5 mph 92% 0 in 0.00 W/m2 unknown
21:09 39.2 °F 37.4 °F 29.7 in West 3.7 mph 5 mph 92% 0 in 0.00 W/m2 unknown
21:14 39.2 °F 37.4 °F 29.7 in West 3.7 mph 5 mph 92% 0 in 0.00 W/m2 unknown
21:19 39.2 °F 37.4 °F 29.7 in West 3.7 mph 5 mph 92% 0 in 0.00 W/m2 unknown
21:24 39.2 °F 37.4 °F 29.7 in West 3.7 mph 5 mph 92% 0 in 0.00 W/m2 unknown
21:29 39.2 °F 37.4 °F 29.7 in West 3.7 mph 6.2 mph 92% 0 in 0.00 W/m2 unknown
21:34 39.2 °F 37.4 °F 29.7 in West 4.3 mph 6.2 mph 92% 0 in 0.00 W/m2 unknown
21:39 39.2 °F 37.4 °F 29.7 in West 5 mph 6.2 mph 92% 0 in 0.00 W/m2 unknown
21:44 39.2 °F 37.4 °F 29.7 in West 5 mph 6.2 mph 92% 0 in 0.00 W/m2 unknown
21:49 39.2 °F 37.4 °F 29.7 in West 4.3 mph 6.2 mph 92% 0 in 0.00 W/m2 unknown
21:54 39.2 °F 37.4 °F 29.7 in West 4.3 mph 5.6 mph 92% 0 in 0.00 W/m2 unknown
21:59 39.2 °F 37.4 °F 29.7 in West 4.3 mph 6.2 mph 92% 0 in 0.00 W/m2 unknown
22:04 39.2 °F 37.4 °F 29.7 in West 5 mph 6.2 mph 92% 0 in 0.00 W/m2 unknown
22:09 39.2 °F 37.4 °F 29.7 in West 4.3 mph 6.2 mph 92% 0 in 0.00 W/m2 unknown
22:14 39.2 °F 37.4 °F 29.7 in West 5 mph 6.2 mph 92% 0 in 0.00 W/m2 unknown
22:19 39.2 °F 37.4 °F 29.7 in West 5.6 mph 6.8 mph 92% 0 in 0.00 W/m2 unknown
22:24 39.2 °F 37.4 °F 29.7 in West 5 mph 6.8 mph 91% 0 in 0.00 W/m2 unknown
22:29 39.2 °F 37.4 °F 29.7 in WSW 5 mph 6.2 mph 91% 0 in 0.00 W/m2 unknown
22:34 39.2 °F 37.4 °F 29.7 in WSW 5 mph 6.2 mph 91% 0 in 0.00 W/m2 unknown
22:39 39.2 °F 37.4 °F 29.7 in WSW 3.7 mph 5 mph 91% 0 in 0.00 W/m2 unknown
22:44 39.2 °F 37.4 °F 29.7 in WSW 3.7 mph 5 mph 91% 0 in 0.00 W/m2 unknown
22:49 39.2 °F 37.4 °F 29.7 in WSW 5 mph 6.8 mph 91% 0 in 0.00 W/m2 unknown
22:54 39.2 °F 37.4 °F 29.7 in WSW 5.6 mph 6.8 mph 91% 0 in 0.00 W/m2 unknown
22:59 39.2 °F 37.4 °F 29.7 in West 5.6 mph 6.8 mph 91% 0 in 0.00 W/m2 unknown
23:04 39.2 °F 37.4 °F 29.7 in WSW 5.6 mph 6.8 mph 91% 0 in 0.00 W/m2 unknown
23:09 39.2 °F 37.4 °F 29.7 in West 5.6 mph 6.8 mph 91% 0 in 0.00 W/m2 unknown
23:14 39.2 °F 37.4 °F 29.7 in West 5.6 mph 6.8 mph 91% 0 in 0.00 W/m2 unknown
23:19 39.2 °F 37.4 °F 29.7 in West 5.6 mph 6.8 mph 91% 0 in 0.00 W/m2 unknown
23:24 39.2 °F 37.4 °F 29.7 in West 5 mph 6.8 mph 91% 0 in 0.00 W/m2 unknown
23:29 39.2 °F 35.6 °F 29.7 in West 5 mph 6.2 mph 91% 0 in 0.00 W/m2 unknown
23:34 39.2 °F 35.6 °F 29.7 in West 5 mph 6.8 mph 91% 0 in 0.00 W/m2 unknown
23:39 39.2 °F 35.6 °F 29.7 in West 4.3 mph 6.2 mph 91% 0 in 0.00 W/m2 unknown
23:44 39.2 °F 35.6 °F 29.7 in West 3.7 mph 6.2 mph 91% 0 in 0.00 W/m2 unknown
23:49 39.2 °F 35.6 °F 29.7 in West 4.3 mph 6.2 mph 91% 0 in 0.00 W/m2 unknown
23:54 39.2 °F 35.6 °F 29.7 in West 5 mph 6.2 mph 91% 0 in 0.00 W/m2 unknown
23:59 39.2 °F 35.6 °F 29.7 in West 5 mph 6.2 mph 91% 0 in 0.00 W/m2 unknown
Stazione Meteorologica MeteoMincio Rivalta s/M (MN)
Con i complimenti di Weather Underground - 4 mb



METEO PILLOLE
La variazione termica più rapida
Spearfish, South Dakota - USA
Il 22 gennaio 1943 in soli 2 minuti la temperatura passò da -20°C a +7°C.
Share

Non seguire questo link o sarai bannato dal sito!